Location: Bidart
(43.4376°N, 1.5913°W)
Time: 05:21:39
(UTC+00:00)

H-2A DEB - Pass Details

Date: 21 April 2026
Orbit: 584 x 592 km, 98.2° (Epoch: 15 May)

Event Time Altitude Azimuth Distance (km) Brightness Sun altitude
Exits shadow 02:27:13 16° 318° (NW) 1,567 ? -25.9°
Drops below altitude 10° 02:28:16 10° 326° (NNW) 1,929 ? -25.8°
Sets 02:30:38 0° 337° (NNW) 2,837 ? -25.6°
